{"data":{"norad_id":64486,"epoch":"2026-09-20T06:29:56.380416Z","epoch_age_seconds":151405,"freshness":"FRESH","line1":"1 64486U 25133Q   26263.27079144  .00015528  00000+0  46965-3 0  9998","line2":"2 64486  53.1599 290.5770 0001718  91.6325 268.4875 15.34408221 71014","mean_motion":15.34408221,"eccentricity":0.0001718,"inclination_deg":53.1599,"raan_deg":290.577,"arg_perigee_deg":91.6325,"mean_anomaly_deg":268.4875,"bstar":0.00046965,"rev_number":7101,"period_min":93.847255267019,"perigee_km":461.50355361627,"apogee_km":463.85405792713,"semimajor_km":6840.8158057717,"source":"CELESTRAK","updated_at":"2026-09-21T09:00:35.361015Z"}}